When you browse on this site, cookies collect data to enhance your experience and personalize the content and advertising you see.
Visit our Privacy Policy to learn more. By continuing to use the site, you agree to this use of cookies and data.
  • In France
  • List of Countries
  • For 7 days
  • Water Temperature
  • Satellite Maps
  • Weather Map
  • Weather Widgets
  • user-avatar
    Login

    Hourly Weather Bük

    Today, 16 July, Tuesday

    Time Temperature Precipitation Wind Pressure Humidity
    00:00 +16°C° 0 mm 2 mps 743 mmHg 72%
    01:00 +15°C° 0 mm 2 mps 743 mmHg 73%
    02:00 +15°C° 0 mm 2 mps 743 mmHg 76%
    03:00 +15°C° 0 mm 2 mps 743 mmHg 78%
    04:00 +15°C° 0 mm 2 mps 743 mmHg 80%
    05:00 +16°C° 0 mm 2 mps 743 mmHg 74%
    06:00 +18°C° 0 mm 3 mps 743 mmHg 69%
    07:00 +20°C° 0 mm 3 mps 743 mmHg 63%
    08:00 +22°C° 0 mm 4 mps 743 mmHg 57%
    09:00 +23°C° 0 mm 4 mps 743 mmHg 51%
    10:00 +26°C° 0 mm 4 mps 743 mmHg 45%
    11:00 +27°C° 0 mm 4 mps 743 mmHg 43%
    12:00 +27°C° 0 mm 3 mps 743 mmHg 40%
    13:00 +28°C° 0 mm 3 mps 743 mmHg 38%
    14:00 +28°C° 0 mm 3 mps 742 mmHg 39%
    15:00 +28°C° 0 mm 3 mps 742 mmHg 40%
    16:00 +28°C° 0 mm 3 mps 742 mmHg 41%
    17:00 +26°C° 0 mm 3 mps 742 mmHg 46%
    18:00 +25°C° 0 mm 3 mps 742 mmHg 50%
    19:00 +24°C° 0 mm 3 mps 742 mmHg 55%
    20:00 +21°C° 0 mm 3 mps 743 mmHg 60%
    21:00 +20°C° 0 mm 3 mps 743 mmHg 65%
    22:00 +18°C° 0 mm 3 mps 744 mmHg 69%
    23:00 +17°C° 0 mm 3 mps 744 mmHg 72%

    Tomorrow, 17 July, Wednesday

    Time Temperature Precipitation Wind Pressure Humidity
    00:00 +16°C° 0 mm 3 mps 744 mmHg 75%
    01:00 +14°C° 0 mm 3 mps 744 mmHg 77%
    02:00 +14°C° 0 mm 3 mps 744 mmHg 79%
    03:00 +13°C° 0 mm 3 mps 744 mmHg 80%
    04:00 +14°C° 0 mm 2 mps 744 mmHg 82%
    05:00 +14°C° 0 mm 3 mps 744 mmHg 76%
    06:00 +17°C° 0 mm 3 mps 744 mmHg 70%
    07:00 +19°C° 0 mm 3 mps 744 mmHg 64%
    08:00 +20°C° 0 mm 3 mps 744 mmHg 60%
    09:00 +22°C° 0 mm 3 mps 743 mmHg 55%
    10:00 +24°C° 0 mm 3 mps 743 mmHg 51%
    11:00 +25°C° 0 mm 2 mps 743 mmHg 49%
    12:00 +26°C° 0 mm 2 mps 743 mmHg 48%
    13:00 +27°C° 0 mm 2 mps 742 mmHg 46%
    14:00 +27°C° 0 mm 1 mps 742 mmHg 46%
    15:00 +27°C° 0 mm 1 mps 742 mmHg 46%
    16:00 +28°C° 0 mm 1 mps 741 mmHg 46%
    17:00 +26°C° 0 mm 1 mps 742 mmHg 49%
    18:00 +25°C° 0 mm 1 mps 741 mmHg 53%
    19:00 +24°C° 0 mm 1 mps 741 mmHg 57%
    20:00 +23°C° 0.7 mm 1 mps 742 mmHg 64%
    21:00 +21°C° 0.7 mm 1 mps 742 mmHg 71%
    22:00 +19°C° 0.7 mm 1 mps 742 mmHg 78%
    23:00 +19°C° 1.8 mm 1 mps 742 mmHg 82%

    Day after tomorrow, 18 July, Thursday

    Time Temperature Precipitation Wind Pressure Humidity
    00:00 +19°C° 1.8 mm 1 mps 742 mmHg 86%
    01:00 +18°C° 1.8 mm 1 mps 742 mmHg 89%
    02:00 +18°C° 0.9 mm 1 mps 742 mmHg 89%
    03:00 +18°C° 0.9 mm 1 mps 742 mmHg 89%
    04:00 +16°C° 0.9 mm 1 mps 742 mmHg 90%
    05:00 +18°C° 0.2 mm 1 mps 742 mmHg 86%
    06:00 +19°C° 0.2 mm 1 mps 742 mmHg 83%
    07:00 +20°C° 0.2 mm 1 mps 742 mmHg 80%
    08:00 +22°C° 0 mm 1 mps 742 mmHg 72%
    09:00 +23°C° 0 mm 1 mps 742 mmHg 64%
    10:00 +25°C° 0 mm 1 mps 743 mmHg 55%
    11:00 +26°C° 0 mm 1 mps 742 mmHg 52%
    12:00 +27°C° 0 mm 1 mps 742 mmHg 49%
    13:00 +28°C° 0 mm 1 mps 742 mmHg 47%
    14:00 +28°C° 0.1 mm 1 mps 742 mmHg 47%
    15:00 +28°C° 0.1 mm 2 mps 741 mmHg 48%
    16:00 +28°C° 0.1 mm 2 mps 741 mmHg 48%
    17:00 +26°C° 0.1 mm 3 mps 741 mmHg 57%
    18:00 +25°C° 0.1 mm 3 mps 741 mmHg 66%
    19:00 +22°C° 0.1 mm 3 mps 741 mmHg 76%
    20:00 +21°C° 0 mm 3 mps 742 mmHg 79%
    21:00 +20°C° 0 mm 2 mps 742 mmHg 82%
    22:00 +20°C° 0 mm 2 mps 742 mmHg 85%
    23:00 +19°C° 0 mm 2 mps 742 mmHg 86%

    19 July, Friday

    Time Temperature Precipitation Wind Pressure Humidity
    00:00 +18°C° 0 mm 2 mps 742 mmHg 88%
    01:00 +18°C° 0 mm 2 mps 742 mmHg 90%
    02:00 +17°C° 0 mm 2 mps 742 mmHg 89%
    03:00 +17°C° 0 mm 2 mps 742 mmHg 88%
    04:00 +17°C° 0 mm 2 mps 742 mmHg 87%
    05:00 +19°C° 0 mm 1 mps 743 mmHg 81%
    06:00 +21°C° 0 mm 1 mps 743 mmHg 75%
    07:00 +22°C° 0 mm 1 mps 743 mmHg 69%
    08:00 +24°C° 0 mm 1 mps 743 mmHg 62%
    09:00 +26°C° 0 mm 1 mps 743 mmHg 55%
    10:00 +27°C° 0 mm 1 mps 744 mmHg 48%
    11:00 +28°C° 0.1 mm 2 mps 743 mmHg 46%
    12:00 +29°C° 0.1 mm 2 mps 743 mmHg 45%
    13:00 +29°C° 0.1 mm 3 mps 743 mmHg 43%
    14:00 +30°C° 0 mm 2 mps 743 mmHg 42%
    15:00 +30°C° 0 mm 2 mps 743 mmHg 41%
    16:00 +30°C° 0 mm 2 mps 743 mmHg 40%
    17:00 +29°C° 0 mm 2 mps 743 mmHg 46%
    18:00 +27°C° 0 mm 2 mps 744 mmHg 52%
    19:00 +26°C° 0 mm 2 mps 744 mmHg 58%
    20:00 +24°C° 0.4 mm 2 mps 744 mmHg 65%
    21:00 +23°C° 0.4 mm 1 mps 744 mmHg 71%
    22:00 +21°C° 0.4 mm 1 mps 745 mmHg 77%
    23:00 +21°C° 0.1 mm 1 mps 745 mmHg 77%

    20 July, Saturday

    Time Temperature Precipitation Wind Pressure Humidity
    00:00 +20°C° 0.1 mm 1 mps 745 mmHg 77%
    01:00 +20°C° 0.1 mm 1 mps 745 mmHg 77%
    02:00 +20°C° 0 mm 1 mps 745 mmHg 78%
    03:00 +17°C° 0 mm 0 mps 745 mmHg 79%
    04:00 +17°C° 0 mm 0 mps 745 mmHg 81%
    05:00 +18°C° 0 mm 0 mps 746 mmHg 77%
    06:00 +20°C° 0 mm 0 mps 746 mmHg 73%
    07:00 +21°C° 0 mm 0 mps 746 mmHg 69%
    08:00 +25°C° 0 mm 1 mps 746 mmHg 63%
    09:00 +27°C° 0 mm 1 mps 747 mmHg 56%
    10:00 +29°C° 0 mm 1 mps 747 mmHg 49%
    11:00 +30°C° 0 mm 2 mps 746 mmHg 46%
    12:00 +31°C° 0 mm 2 mps 746 mmHg 44%
    13:00 +33°C° 0 mm 3 mps 746 mmHg 41%
    14:00 +33°C° 0 mm 3 mps 746 mmHg 42%
    15:00 +33°C° 0 mm 3 mps 745 mmHg 42%
    16:00 +33°C° 0 mm 4 mps 745 mmHg 43%
    17:00 +30°C° 0 mm 3 mps 745 mmHg 49%
    18:00 +29°C° 0 mm 3 mps 745 mmHg 56%
    19:00 +27°C° 0 mm 2 mps 745 mmHg 63%
    20:00 +26°C° 0 mm 2 mps 745 mmHg 66%
    21:00 +25°C° 0 mm 3 mps 746 mmHg 70%
    22:00 +24°C° 0 mm 3 mps 746 mmHg 74%
    23:00 +23°C° 0 mm 2 mps 746 mmHg 76%

    21 July, Sunday

    Time Temperature Precipitation Wind Pressure Humidity
    00:00 +23°C° 0 mm 2 mps 746 mmHg 79%
    01:00 +21°C° 0 mm 2 mps 746 mmHg 82%
    02:00 +21°C° 0.7 mm 2 mps 746 mmHg 85%
    03:00 +21°C° 0.7 mm 1 mps 746 mmHg 89%
    04:00 +21°C° 0.7 mm 1 mps 746 mmHg 92%
    05:00 +20°C° 1.2 mm 2 mps 746 mmHg 91%
    06:00 +21°C° 1.2 mm 3 mps 747 mmHg 89%
    07:00 +22°C° 1.2 mm 3 mps 747 mmHg 88%
    08:00 +23°C° 0.1 mm 4 mps 747 mmHg 80%
    09:00 +25°C° 0.1 mm 4 mps 748 mmHg 72%
    10:00 +27°C° 0.1 mm 4 mps 748 mmHg 65%
    11:00 +28°C° 0.4 mm 4 mps 748 mmHg 62%
    12:00 +28°C° 0.4 mm 3 mps 748 mmHg 59%
    13:00 +29°C° 0.4 mm 3 mps 748 mmHg 56%
    14:00 +29°C° 0.8 mm 3 mps 748 mmHg 59%
    15:00 +29°C° 0.8 mm 3 mps 748 mmHg 62%
    16:00 +28°C° 0.8 mm 2 mps 748 mmHg 64%
    17:00 +27°C° 0.3 mm 3 mps 748 mmHg 68%
    18:00 +26°C° 0.3 mm 3 mps 748 mmHg 72%
    19:00 +25°C° 0.3 mm 3 mps 748 mmHg 75%
    20:00 +24°C° 0.6 mm 3 mps 748 mmHg 79%
    21:00 +22°C° 0.6 mm 3 mps 748 mmHg 83%
    22:00 +21°C° 0.6 mm 3 mps 749 mmHg 86%
    23:00 +21°C° 0.4 mm 2 mps 749 mmHg 86%
    Show more